Flag for Niger Weather past 2 weeks in Niamey, Niger

Now
84 °F

Clear.


Feels Like: 84 °F
Forecast: 90 / 107 °F
Wind: 9 mph from Southwest

Location: Niamey-Aero

Current Time: May 24, 2015 at 6:59:04 AM

Latest Report: May 24, 2015 at 6:00 AM


Visibility: 4 mi

Pressure: 29.80 "Hg

Humidity: 43%

Dew point: 59 °F

Location of NiameyLocation

Historic Weather in Niamey — Graph

°F

Niamey temperature yesterday

Maximum temperature yesterday: 109 °F (at 4:00 PM)
Minimum temperature yesterday: 86 °F (at 9:00 PM)
Average temperature yesterday: 97 °F

Past Weeks' High & Low Weather Summary

 TemperatureHumidityPressure
High111 °F (May 18, 3:00 PM)58% (May 24, 4:00 AM)29.95 "Hg (May 24, 4:00 AM)
Low82 °F (May 24, 4:00 AM)4% (May 13, 6:00 PM)29.68 "Hg (May 18, 6:00 PM)
Average97 °F23%29.82 "Hg
* Reported May 9 6:00 AM — May 24 6:00 AM, Niamey, Weather by CustomWeather, © 2015

Note: Actual official high and low records may vary slightly from our data, if they occured in-between our weather recording intervals... More about our weather records

Advertising

Niamey weather history for previous 24 hours

 ConditionsComfort  
Time TempWeatherWind HumidityBarometerVisibility
6:00 AM
Sun, May 24
84 °FClear.9 mph43%29.80 "Hg4 mi
5:00 AM84 °FPassing clouds.15 mph48%29.83 "Hg4 mi
4:00 AM82 °FPassing clouds.14 mph58%29.89 "Hg4 mi
3:00 AM84 °FPassing clouds.15 mph51%29.89 "Hg4 mi
2:00 AM86 °FLow level haze.20 mph46%29.89 "Hg3 mi
1:00 AM86 °FPassing clouds.9 mph46%29.83 "Hg5 mi
12:00 AM86 °FPassing clouds.14 mph46%29.86 "Hg4 mi
11:00 PM
Sat, May 23
86 °FPassing clouds.14 mph46%29.86 "Hg2 mi
10:00 PM88 °FLow level haze.20 mph43%29.83 "Hg1 mi
9:00 PM86 °FLow level haze.20 mph46%29.83 "Hg1 mi
8:00 PM88 °FThunderstorms. Passing clouds.25 mph46%29.83 "Hg1 mi
7:00 PM102 °FThunderstorms. Scattered clouds.10 mph20%29.74 "Hg2 mi
6:00 PM106 °FScattered clouds.8 mph17%29.68 "HgN/A
5:00 PM108 °FScattered clouds.12 mph17%29.68 "HgN/A
4:00 PM109 °FPassing clouds.12 mph16%29.71 "HgN/A
3:00 PM108 °FPassing clouds.9 mph18%29.74 "HgN/A
2:00 PM106 °FPassing clouds.8 mph20%29.77 "Hg5 mi
1:00 PM104 °FClear.14 mph24%29.80 "Hg4 mi
12:00 PM102 °FClear.15 mph26%29.83 "Hg4 mi
11:00 AM100 °FClear.16 mph27%29.86 "Hg4 mi
10:00 AM97 °FClear.16 mph32%29.86 "Hg4 mi
9:00 AM93 °FClear.16 mph36%29.86 "Hg5 mi
8:00 AM91 °FSunny.9 mph41%29.83 "Hg10 mi
7:00 AM90 °FPassing clouds.7 mph46%29.83 "HgN/A
6:00 AM90 °FClear.7 mph43%29.80 "Hg10 mi
Weather by CustomWeather, © 2015

See weather overviewHow to use our weather pages